Flag for Spain Past Weather in Santa Cruz de Tenerife, Canary Islands, Spain — Yesterday and Last 2 Weeks

Now
70 °F

Scattered clouds.


Feels Like: 70 °F
Forecast: 73 / 79 °F
Wind: 17 mph from Northwest

Location: Tenerife / Los Rodeos

Current Time: Aug 25, 2016 at 4:19:59 PM

Latest Report: Aug 25, 2016 at 4:00 PM


Visibility: N/A

Pressure: 30.01 "Hg

Humidity: 78%

Dew Point: 63 °F

Location of Santa Cruz de TenerifeLocation

Past Weather in Santa Cruz de Tenerife — Graph

°F

Santa Cruz de Tenerife Temperature Yesterday

Maximum temperature yesterday: 75 °F (at 2:30 PM)
Minimum temperature yesterday: 63 °F (at 5:30 AM)
Average temperature yesterday: 68 °F

High & Low Weather Summary for the Past Weeks

 TemperatureHumidityPressure
High95 °F (Aug 10, 4:00 PM)100% (Aug 11, 11:00 PM)30.18 "Hg (Aug 11, 11:00 PM)
Low59 °F (Aug 19, 6:00 AM)9% (Aug 23, 12:30 PM)29.98 "Hg (Aug 25, 4:30 AM)
Average70 °F70%30.10 "Hg
* Reported Aug 10 3:00 PM — Aug 25 3:00 PM, Santa Cruz de Tenerife, Weather by CustomWeather, © 2016

Note: Actual official high and low records may vary slightly from our data, if they occured in-between our weather recording intervals... More about our weather records

Advertising

Santa Cruz de Tenerife Weather History for the Previous 24 Hours

Scroll right to see more
 ConditionsComfort  
Time TempWeatherWind HumidityBarometerVisibility
3:00 PM
Thu, Aug 25
72 °FScattered clouds.18 mph73%30.01 "HgN/A
2:30 PM70 °FScattered clouds.18 mph73%30.01 "HgN/A
2:00 PM70 °FPartly sunny.18 mph78%30.04 "HgN/A
1:30 PM68 °FPartly sunny.18 mph83%30.04 "HgN/A
1:00 PM72 °FScattered clouds.16 mph78%30.04 "HgN/A
12:30 PM72 °FScattered clouds.18 mph73%30.04 "HgN/A
12:00 PM70 °FScattered clouds.17 mph73%30.04 "HgN/A
11:30 AM68 °FScattered clouds.16 mph78%30.04 "HgN/A
11:00 AM68 °FBroken clouds.18 mph78%30.04 "HgN/A
10:30 AM66 °FBroken clouds.18 mph83%30.04 "HgN/A
10:00 AM64 °FBroken clouds.20 mph88%30.01 "HgN/A
9:30 AM64 °FBroken clouds.18 mph94%30.01 "HgN/A
9:00 AM64 °FBroken clouds.16 mph94%30.01 "HgN/A
8:30 AM64 °FPartly cloudy.17 mph94%30.01 "HgN/A
8:00 AM64 °FPartly cloudy.18 mph88%30.01 "HgN/A
7:30 AM64 °FPartly cloudy.20 mph88%30.01 "HgN/A
7:00 AM63 °FPartly cloudy.18 mph94%30.01 "HgN/A
6:30 AM63 °FPassing clouds.20 mph94%30.01 "HgN/A
6:00 AM63 °FPassing clouds.21 mph94%30.01 "HgN/A
5:30 AM63 °FLow clouds.20 mph94%30.01 "HgN/A
5:00 AM63 °FMostly cloudy.21 mph100%29.98 "HgN/A
4:30 AM64 °FMostly cloudy.22 mph88%29.98 "HgN/A
4:00 AM63 °FMostly cloudy.23 mph94%30.01 "HgN/A
3:30 AM63 °FPartly cloudy.23 mph94%30.01 "HgN/A
3:00 AM63 °FMostly cloudy.21 mph94%30.01 "HgN/A
2:30 AM63 °FMostly cloudy.23 mph94%30.01 "HgN/A
2:00 AM64 °FPassing clouds.23 mph88%30.01 "HgN/A
1:30 AM64 °FFog.21 mph94%30.04 "HgN/A
1:00 AM63 °FLow clouds.21 mph100%30.04 "HgN/A
12:30 AM63 °FPassing clouds.21 mph94%30.04 "HgN/A
12:00 AM63 °FMild.20 mph94%30.04 "HgN/A
11:30 PM
Wed, Aug 24
63 °FMild.18 mph94%30.04 "HgN/A
11:00 PM63 °FFog.17 mph94%30.07 "Hg6 mi
10:30 PM63 °FFog.17 mph94%30.07 "Hg6 mi
10:00 PM63 °FFog.21 mph94%30.04 "Hg6 mi
9:30 PM63 °FLight fog.17 mph94%30.04 "Hg6 mi
9:00 PM63 °FPassing clouds.18 mph94%30.04 "HgN/A
8:30 PM64 °FPassing clouds.20 mph88%30.04 "HgN/A
8:00 PM66 °FPassing clouds.20 mph83%30.04 "HgN/A
7:30 PM68 °FPassing clouds.18 mph78%30.04 "HgN/A
7:00 PM70 °FPassing clouds.20 mph73%30.04 "HgN/A
6:30 PM70 °FPassing clouds.22 mph78%30.04 "HgN/A
6:00 PM70 °FPassing clouds.23 mph78%30.04 "HgN/A
5:30 PM70 °FPassing clouds.23 mph73%30.04 "HgN/A
5:00 PM70 °FPassing clouds.21 mph78%30.07 "HgN/A
4:30 PM70 °FPassing clouds.20 mph73%30.07 "HgN/A
4:00 PM72 °FPassing clouds.21 mph73%30.07 "HgN/A
Weather by CustomWeather, © 2016

See weather overviewHow to use our weather pages